OPS 4682 DEB, 38381

Orbit data source: Space-Track

OPS 4682 DEB, 38381 is space debris in LEO originally from a launch on Sat, 03 Apr 1965 UTC launched from the Air Force Western Test Range (AFWTR). Debris objects in space refer to the collection of defunct objects orbiting the Earth. Examples of debris include non-operational satellites, rocket bodies, and fragments generated from explosions, collisions, or faulty payload assembly.

Loading next visibility...
Identifier
38381, 1965-027CJ
Orbit
LEO
Country
Flag of USUS
Related business
Manufacturer
Unknown
Mission
Spacecraft
Bus & Motor
Unknown
Mass
Unknown
Launch date (UTC)
1965-04-03 (61 years ago)
Launch vehicle
Unknown
Launch site
Air Force Western Test Range (AFWTR)
Object type
Payload
Rocket body
Debris
Shape & HBR
Unknown shape, 0.1 m
Radar Cross Section
Small (<0.1 m²)

Expand to show TLE details & history
Last TLE update: 1 day ago

TLE from 1 day ago
0 OPS 4682 DEB
1 38381U 65027CJ  26103.18261030 -.00000141  00000-0 -49049-3 0  9993
2 38381  90.2584  16.8375 0023692  49.5571 310.7612 13.00190453577641
Epoch: 2026-04-13T04:22Z
TLE epoch observation values (Epoch: 2026-04-13T04:22:57.529Z)
Latitude
-0.00009°
Longitude
109.72092°
Altitude
1,252.43 km
Speed
7.234 km/s
True Right ascension
01h 07m 21s
True Declination
0° 00' 00"
Sunlit
Object was in daylight at epoch
Visualization orbit readout
Latitude
Unknown
Longitude
Unknown
Altitude
Unknown
Speed
Unknown
Apparent Right ascension
Unknown
Apparent Declination
Unknown
Sunlit
N/A
Visualization observer readout
Local Sidereal Time
18:58:14
Azimuth
Unknown
Elevation
Unknown
Doppler factor
Unknown
Orbital elements
Apogee altitude
1,276.56 km
Perigee altitude
1,240.375 km
Semi-major axis
7,636.604 km
Eccentricity
0.00237
Inclination
90.2584°
RAAN
16.8375°
Arg. of periapsis
49.5571°
True anomaly
310.55517°
Mean anomaly
310.7612°
Eccentric anomaly
310.65822°
Mean motion
3.25232 °/min
Orbital period
110.69 mins
BSTAR
-0.00049049
Loading maneuver chart data...
Computing Atmospheric mass density...
Loading historical data...
Loading historical data...
Loading historical data...
Loading historical data...
Loading historical data...
Loading historical data...
Loading historical data...

Documentation

Showing up to 5 results
|